[[{"header":{"parameterUnit":"m.s-1","parameterCategory":1,"la1":30.2991,"la2":30.254,"lo1":-89.0895,"lo2":-89.0444,"dy":0.0017,"dx":0.0017,"nx":28,"ny":28,"refTime":"2024-09-30T09:00:00:Z","depth":0,"parameterNumber":2,"parameterNumberName":"U-component_of_WINDS"},"data":[0,0,0,0,0,0,0,0,0,0,0,0,0,0,0,0,0,0,0,0,0,0,0,0,0,0,0,0,0,0,0,0,0,0,0,0,0,0,0,0,0,0,0,0,0,0,0,0,0,0,0,0,0,0,0,0,0,0,-0.4531,-0.4531,0,-0.4538,-0.4538,-0.4538,-0.4476,-0.4474,-0.4472,-0.4471,-0.4481,-0.4483,-0.4485,0,0,0,0,0,0,0,0,0,0,0,0,0,-0.4465,-0.4467,-0.4531,-0.4531,-0.4531,-0.4538,-0.4538,-0.4538,-0.4476,-0.4474,-0.4472,-0.447,-0.4481,-0.4483,-0.4485,0,0,0,0,0,0,0,0,0,0,0,0,0,-0.4485,-0.4467,-0.453,-0.4501,-0.4498,-0.4538,-0.4538,-0.4538,-0.4476,-0.4474,-0.4471,-0.4469,-0.448,-0.4483,-0.4485,-0.4555,0,0,-0.4494,-0.4495,0,0,0,0,0,0,0,0,-0.4484,-0.4488,-0.4505,-0.4503,-0.45,-0.4503,-0.4519,-0.4544,-0.4477,-0.4485,-0.4471,-0.4468,-0.4491,-0.4493,-0.45,-0.4555,-0.4556,-0.4494,-0.4496,-0.4497,-0.4498,0,0,0,0,0,0,0,-0.4483,-0.4487,-0.4533,-0.4505,-0.4502,-0.4487,-0.4487,-0.4523,-0.4502,-0.4484,-0.4479,-0.4481,-0.4489,-0.4497,-0.4499,-0.4556,-0.4494,-0.4497,-0.4499,-0.45,-0.4669,-0.4672,0,0,0,0,0,0,-0.4485,-0.4486,-0.4533,-0.4534,-0.4485,-0.4491,-0.4491,-0.4505,-0.4502,-0.4499,-0.4483,-0.4478,-0.4494,-0.4496,-0.45,-0.4582,-0.4497,-0.45,-0.4502,-0.4667,-0.467,-0.4673,0,0,0,0,0,0,-0.4484,-0.449,-0.4533,-0.4509,-0.4513,-0.4495,-0.4511,-0.4506,-0.4514,-0.4501,-0.4497,-0.4495,-0.4492,-0.4496,-0.4541,-0.4581,-0.4501,-0.4504,-0.4663,-0.4668,-0.4671,-0.4746,0,0,0,0,0,0,-0.4482,-0.449,-0.4516,-0.451,-0.4515,-0.4574,-0.4513,-0.4508,-0.4519,-0.4512,-0.4512,-0.4509,-0.449,-0.4538,-0.4544,-0.4584,-0.4506,-0.466,-0.4665,-0.467,-0.474,-0.4752,-0.4763,0,0,0,0,0,-0.448,-0.4537,-0.4518,-0.4524,-0.4547,-0.4577,-0.458,-0.4556,-0.4522,-0.4549,-0.454,-0.4509,-0.4575,-0.4543,-0.455,-0.4591,-0.4657,-0.4664,-0.467,-0.4735,-0.475,-0.4762,0,0,0,0,0,0,-0.455,-0.4536,-0.4514,-0.457,-0.4575,-0.4566,-0.4599,-0.4572,-0.4587,-0.4581,-0.4551,-0.4551,-0.4602,-0.46,-0.4565,-0.4658,-0.461,-0.4618,-0.4657,-0.4671,-0.4683,-0.4683,-0.4508,0,0,0,0,0,-0.4572,-0.4597,-0.4583,-0.4634,-0.4637,-0.4618,-0.463,-0.4611,-0.4615,-0.4617,-0.4612,-0.4618,-0.464,-0.4655,-0.4675,-0.4738,-0.4738,-0.477,-0.4781,-0.479,-0.4799,-0.4833,-0.4847,-0.4694,-0.4694,-0.4693,0,0,-0.4617,-0.4613,-0.4631,-0.4648,-0.465,-0.4677,-0.462,-0.4651,-0.4672,-0.4622,-0.4665,-0.4661,-0.4666,-0.4721,-0.4745,-0.4721,-0.484,-0.4798,-0.4806,-0.4809,-0.4841,-0.4855,-0.4868,-0.4698,-0.4697,-0.4696,0,0,-0.4715,-0.4713,-0.4756,-0.4758,-0.476,-0.4746,-0.4756,-0.4751,-0.4747,-0.4789,-0.4752,-0.4776,-0.4814,-0.4819,-0.4827,-0.4924,-0.4897,-0.4931,-0.4992,-0.5025,-0.5037,-0.5048,-0.5084,-0.5097,-0.4939,-0.4939,-0.4939,0,-0.4772,-0.4811,-0.4781,-0.4815,-0.4824,-0.4779,-0.4822,-0.4826,-0.4835,-0.4843,-0.4815,-0.4862,-0.4862,-0.4918,-0.4941,-0.4948,-0.496,-0.4932,-0.5038,-0.5048,-0.5057,-0.5092,-0.5105,-0.4943,-0.4943,-0.4942,-0.4942,0,-0.4881,-0.4909,-0.4943,-0.4952,-0.4964,-0.5003,-0.498,-0.4996,-0.4975,-0.4965,-0.5008,-0.5006,-0.5024,-0.5036,-0.5016,-0.5089,-0.5074,-0.5042,-0.4995,-0.5077,-0.5109,-0.5121,-0.4949,-0.4948,-0.4947,-0.4946,0,0,-0.5026,-0.5016,-0.5029,-0.5033,-0.5031,-0.5052,-0.5088,-0.5105,-0.512,-0.5127,-0.5157,-0.519,-0.516,-0.5169,-0.5149,-0.5178,-0.5257,-0.5143,-0.5143,-0.5166,-0.5338,-0.5364,-0.5379,-0.5237,-0.524,-0.5241,-0.5338,0,-0.5122,-0.5183,-0.5157,-0.5221,-0.5246,-0.5202,-0.5233,-0.5236,-0.5227,-0.5247,-0.5237,-0.5261,-0.5219,-0.5224,-0.5251,-0.5242,-0.5292,-0.5234,-0.5267,-0.5269,-0.5269,-0.5395,-0.5422,-0.5514,-0.535,-0.5352,-0.5354,0,-0.5243,-0.5254,-0.532,-0.5313,-0.5323,-0.5352,-0.5365,-0.5384,-0.5387,-0.5377,-0.5386,-0.536,-0.5395,-0.5346,-0.5395,-0.5356,-0.5368,-0.5365,-0.5368,-0.5372,-0.5318,-0.5405,-0.5543,-0.5557,-0.5373,-0.5371,-0.537,0,-0.5344,-0.5375,-0.5418,-0.5422,-0.5415,-0.5437,-0.5435,-0.5434,-0.5445,-0.5457,-0.5464,-0.5479,-0.5489,-0.5501,-0.548,-0.5446,-0.5533,-0.5481,-0.5527,-0.5528,-0.555,-0.5549,-0.5694,-0.5554,-0.5554,-0.5553,-0.5553,0,-0.5455,-0.5498,-0.5464,-0.5491,-0.5537,-0.5506,-0.5553,-0.5547,-0.5546,-0.5572,-0.5534,-0.5559,-0.5528,-0.555,-0.5533,-0.5577,-0.5581,-0.5575,-0.5571,-0.558,-0.5581,-0.5589,-0.5583,-0.5557,-0.5556,-0.5555,-0.5555,0,-0.5577,-0.5555,-0.56,-0.5589,-0.5587,-0.5622,-0.5612,-0.5637,-0.5624,-0.5657,-0.5663,-0.5643,-0.5667,-0.5645,-0.5669,-0.5657,-0.5716,-0.5701,-0.5715,-0.5712,-0.576,-0.5757,-0.5917,-0.5936,-0.5782,-0.5784,-0.5785,0,-0.5651,-0.5683,-0.5674,-0.5688,-0.5688,-0.5711,-0.5722,-0.5692,-0.5705,-0.5709,-0.5734,-0.5754,-0.5769,-0.5809,-0.5798,-0.5815,-0.5802,-0.5856,-0.5804,-0.5812,-0.5805,-0.5804,-0.5807,-0.5868,-0.587,-0.5871,-0.5872,0,-0.5785,-0.5772,-0.5789,-0.5802,-0.5816,-0.5826,-0.5832,-0.5846,-0.5815,-0.5832,-0.5855,-0.5866,-0.5889,-0.591,-0.5923,-0.5922,-0.5893,-0.5888,-0.59,-0.5911,-0.5919,-0.5917,-0.5746,-0.5886,-0.5884,-0.5883,-0.5883,-0.5882,-0.5886,-0.5912,-0.591,-0.593,-0.5931,-0.5938,-0.5961,-0.5949,-0.5968,-0.5984,-0.5965,-0.5994,-0.5994,-0.6009,-0.601,-0.6033,-0.601,-0.6027,-0.6032,-0.6037,-0.6045,-0.5913,-0.6035,-0.6035,-0.6034,-0.6034,-0.6034,0,-0.602,-0.6015,-0.6034,-0.6043,-0.6059,-0.6028,-0.6033,-0.6049,-0.6074,-0.6076,-0.6091,-0.6118,-0.6138,-0.6126,-0.6144,-0.6164,-0.6151,-0.617,-0.6169,-0.6169,-0.6063,-0.6052,-0.618,-0.618,-0.618,-0.618,-0.618,-0.618,-0.6091,-0.6134,-0.6121,-0.6163,-0.6159,-0.6186,-0.6192,-0.6198,-0.6199,-0.6231,-0.6246,-0.6238,-0.6235,-0.6251,-0.6268,-0.6264,-0.6273,-0.6297,-0.6289,-0.6191,-0.6177,-0.6163,-0.6152,-0.6299,-0.6299,-0.6393,-0.6394,-0.6395]},{"header":{"parameterUnit":"m.s-1","parameterCategory":1,"la1":30.2991,"la2":30.254,"lo1":-89.0895,"lo2":-89.0444,"dy":0.0017,"dx":0.0017,"nx":28,"ny":28,"refTime":"2024-09-30T09:00:00:Z","depth":0,"parameterNumber":3,"parameterNumberName":"V-component_of_WINDS"},"data":[0,0,0,0,0,0,0,0,0,0,0,0,0,0,0,0,0,0,0,0,0,0,0,0,0,0,0,0,0,0,0,0,0,0,0,0,0,0,0,0,0,0,0,0,0,0,0,0,0,0,0,0,0,0,0,0,0,0,-2.7347,-2.7348,0,-2.7398,-2.7399,-2.7399,-2.7367,-2.7366,-2.7365,-2.7363,-2.7413,-2.7416,-2.7418,0,0,0,0,0,0,0,0,0,0,0,0,0,-2.722,-2.7223,-2.7347,-2.7348,-2.7348,-2.7398,-2.7399,-2.7399,-2.7368,-2.7366,-2.7364,-2.7362,-2.7412,-2.7415,-2.7419,0,0,0,0,0,0,0,0,0,0,0,0,0,-2.7274,-2.7224,-2.7347,-2.7339,-2.7338,-2.7398,-2.7399,-2.7399,-2.7368,-2.7366,-2.7364,-2.7362,-2.7411,-2.7415,-2.7419,-2.7489,0,0,-2.7431,-2.7433,0,0,0,0,0,0,0,0,-2.7271,-2.7278,-2.7339,-2.7339,-2.7339,-2.7374,-2.7372,-2.7429,-2.7369,-2.7357,-2.7363,-2.736,-2.7402,-2.7406,-2.7421,-2.7491,-2.7493,-2.7432,-2.7434,-2.7436,-2.7437,0,0,0,0,0,0,0,-2.7267,-2.7276,-2.7367,-2.734,-2.734,-2.7332,-2.7337,-2.7383,-2.7391,-2.7358,-2.7355,-2.7362,-2.7401,-2.7417,-2.7422,-2.7494,-2.7432,-2.7435,-2.7438,-2.7439,-2.7624,-2.7626,0,0,0,0,0,0,-2.7264,-2.7273,-2.7365,-2.7369,-2.7299,-2.7336,-2.7341,-2.7365,-2.739,-2.7392,-2.7364,-2.736,-2.7411,-2.7417,-2.7423,-2.7507,-2.7436,-2.744,-2.7442,-2.7621,-2.7624,-2.7627,0,0,0,0,0,0,-2.7262,-2.7273,-2.7363,-2.732,-2.7331,-2.734,-2.7367,-2.7367,-2.7383,-2.7395,-2.7396,-2.7379,-2.741,-2.7418,-2.7473,-2.7508,-2.7442,-2.7445,-2.7618,-2.7622,-2.7626,-2.7673,0,0,0,0,0,0,-2.7258,-2.7272,-2.7299,-2.7321,-2.7334,-2.7413,-2.7369,-2.737,-2.739,-2.7386,-2.7409,-2.7411,-2.7408,-2.7467,-2.7477,-2.7512,-2.7449,-2.7615,-2.762,-2.7624,-2.7669,-2.7678,-2.7686,0,0,0,0,0,-2.7254,-2.731,-2.7301,-2.7312,-2.7368,-2.7415,-2.7422,-2.7419,-2.7393,-2.742,-2.7428,-2.741,-2.7503,-2.7473,-2.7484,-2.7521,-2.7613,-2.7619,-2.7624,-2.7665,-2.7676,-2.7686,0,0,0,0,0,0,-2.7291,-2.7313,-2.7303,-2.7368,-2.739,-2.7409,-2.7443,-2.7431,-2.746,-2.7455,-2.7449,-2.7454,-2.7512,-2.7522,-2.7488,-2.759,-2.7554,-2.7562,-2.7581,-2.7592,-2.7601,-2.7597,-2.7452,0,0,0,0,0,-2.7307,-2.7344,-2.7361,-2.7417,-2.7429,-2.7434,-2.7455,-2.745,-2.7472,-2.7481,-2.7493,-2.7515,-2.7548,-2.7571,-2.7603,-2.767,-2.7674,-2.7701,-2.771,-2.7717,-2.7724,-2.776,-2.7772,-2.7645,-2.7645,-2.7645,0,0,-2.734,-2.7357,-2.738,-2.7425,-2.7441,-2.7479,-2.7442,-2.7484,-2.7512,-2.7487,-2.754,-2.755,-2.7574,-2.7635,-2.7663,-2.7645,-2.776,-2.7724,-2.773,-2.7733,-2.7767,-2.7779,-2.779,-2.7649,-2.7648,-2.7648,0,0,-2.742,-2.7436,-2.7485,-2.7502,-2.7528,-2.7531,-2.7543,-2.7565,-2.757,-2.7624,-2.7606,-2.7639,-2.7697,-2.7715,-2.7732,-2.7818,-2.7803,-2.7829,-2.7875,-2.791,-2.792,-2.7929,-2.796,-2.7971,-2.7836,-2.7836,-2.7836,0,-2.7458,-2.7515,-2.7511,-2.7554,-2.7574,-2.7555,-2.7603,-2.762,-2.7655,-2.7669,-2.7649,-2.7722,-2.7736,-2.7802,-2.7823,-2.7837,-2.785,-2.7826,-2.7919,-2.7928,-2.7936,-2.7965,-2.7977,-2.7839,-2.7838,-2.7838,-2.7838,0,-2.756,-2.7599,-2.7635,-2.767,-2.7694,-2.774,-2.7742,-2.7767,-2.7761,-2.7766,-2.782,-2.7837,-2.7872,-2.7887,-2.7881,-2.7952,-2.794,-2.792,-2.7884,-2.7951,-2.7979,-2.799,-2.7843,-2.7842,-2.7841,-2.784,0,0,-2.7664,-2.7696,-2.7709,-2.7725,-2.7752,-2.7782,-2.7827,-2.7862,-2.7883,-2.7908,-2.7944,-2.7995,-2.7976,-2.7995,-2.7991,-2.8022,-2.8089,-2.7998,-2.7998,-2.8014,-2.8168,-2.8183,-2.8196,-2.8079,-2.8081,-2.8083,-2.8166,0,-2.7745,-2.7823,-2.7822,-2.7894,-2.7931,-2.7913,-2.7952,-2.7972,-2.7979,-2.801,-2.8017,-2.8052,-2.8025,-2.8037,-2.8067,-2.8075,-2.812,-2.8069,-2.8113,-2.8114,-2.8107,-2.821,-2.8226,-2.8303,-2.8176,-2.8178,-2.818,0,-2.785,-2.7879,-2.7955,-2.7977,-2.7992,-2.8028,-2.8059,-2.809,-2.8112,-2.8115,-2.8136,-2.8127,-2.8172,-2.8135,-2.8196,-2.8161,-2.8179,-2.8186,-2.8189,-2.8192,-2.8151,-2.8216,-2.8328,-2.8339,-2.8196,-2.8195,-2.8194,0,-2.7918,-2.7976,-2.8029,-2.8043,-2.807,-2.8095,-2.8107,-2.8128,-2.8149,-2.8176,-2.819,-2.8222,-2.824,-2.8265,-2.8264,-2.8237,-2.8326,-2.8289,-2.8329,-2.8329,-2.8348,-2.8346,-2.8463,-2.836,-2.836,-2.836,-2.8359,0,-2.8008,-2.8056,-2.806,-2.8093,-2.8145,-2.8142,-2.8194,-2.8204,-2.8223,-2.8257,-2.8243,-2.8275,-2.8273,-2.8305,-2.8305,-2.8355,-2.8363,-2.8366,-2.8365,-2.8367,-2.8367,-2.8378,-2.8373,-2.8363,-2.8362,-2.8361,-2.8361,0,-2.8092,-2.8097,-2.8154,-2.8176,-2.8182,-2.822,-2.8237,-2.8268,-2.8274,-2.8317,-2.8326,-2.8335,-2.8372,-2.8374,-2.8417,-2.8417,-2.8478,-2.8472,-2.8471,-2.8469,-2.8509,-2.8505,-2.8637,-2.8654,-2.854,-2.8541,-2.8542,0,-2.815,-2.8186,-2.8211,-2.8233,-2.8247,-2.8283,-2.8305,-2.8303,-2.8326,-2.8355,-2.8382,-2.8418,-2.8447,-2.8507,-2.8517,-2.8549,-2.8543,-2.8587,-2.8548,-2.8549,-2.8543,-2.8541,-2.8545,-2.8595,-2.8596,-2.8597,-2.8598,0,-2.8251,-2.8251,-2.8283,-2.8317,-2.8343,-2.8369,-2.8393,-2.8412,-2.8413,-2.844,-2.8478,-2.85,-2.8544,-2.858,-2.8612,-2.8624,-2.8611,-2.861,-2.8621,-2.8623,-2.8621,-2.8622,-2.8491,-2.8607,-2.8606,-2.8606,-2.8605,-2.8605,-2.8323,-2.8354,-2.8377,-2.8413,-2.8431,-2.8454,-2.8485,-2.8494,-2.8526,-2.8562,-2.8559,-2.8602,-2.8623,-2.8665,-2.8679,-2.8712,-2.8697,-2.8713,-2.8717,-2.872,-2.8725,-2.8616,-2.8718,-2.8718,-2.8717,-2.8717,-2.8717,0,-2.8423,-2.8437,-2.847,-2.8505,-2.8533,-2.852,-2.8545,-2.857,-2.8608,-2.8629,-2.8658,-2.8702,-2.8737,-2.8749,-2.8783,-2.8807,-2.8802,-2.8816,-2.8814,-2.8816,-2.8736,-2.8723,-2.8819,-2.8819,-2.8819,-2.8819,-2.8819,-2.8819,-2.8478,-2.853,-2.8534,-2.8595,-2.8608,-2.865,-2.8666,-2.8687,-2.8705,-2.8754,-2.8784,-2.8792,-2.8809,-2.8844,-2.8876,-2.8878,-2.8891,-2.8907,-2.8908,-2.8832,-2.8822,-2.8812,-2.88,-2.891,-2.8911,-2.8985,-2.8986,-2.8986]}]]